Weather History for Worcester, MA

Change the Weather History Date:

Friday, July 12, 2013

  Actual Average Record
Temperature  
Mean Temperature 70 °F 70 °F  
Max Temperature 74 °F 79 °F 96 °F (1908)
Min Temperature 65 °F 62 °F 41 °F (1945)
Degree Days  
Heating Degree Days 0 0  
Month to date heating degree days 0 9  
Since 1 June heating degree days 67 92  
Since 1 July heating degree days 0 9  
Cooling Degree Days 5 6  
Month to date cooling degree days 124 63  
Year to date cooling degree days 251 169  
Since 1 June cooling degree days 227 147  
Growing Degree Days 20 (Base 50)    
Moisture  
Dew Point 58 °F    
Average Humidity 67    
Maximum Humidity 76    
Minimum Humidity 57    
Precipitation  
Precipitation T in 0.14 in 2.84 in (1938)
Month to date precipitation 0.68 1.52  
Year to date precipitation 27.55 24.94  
Sea Level Pressure  
Sea Level Pressure 30.11 in    
Wind  
Wind Speed 10 mph (NE)    
Max Wind Speed 16 mph    
Max Gust Speed 24 mph    
Visibility 10 miles    
Events      
T = Trace of Precipitation, MM = Missing Value Source: NWS Daily Summary

Daily Weather History Graph

Daily Weather History Graph

Search for Another Location

Airport:

Trip Planner

Search our weather history database for the weather conditions in past years. The results will help you decide how hot, cold, wet, or windy it might be!

Date:

Astronomy

Jul. 12, 2013 Rise Set
Actual Time 5:22 AM EDT 8:23 PM EDT
Civil Twilight 4:48 AM EDT 8:57 PM EDT
Nautical Twilight 4:05 AM EDT 9:40 PM EDT
Astronomical Twilight 3:14 AM EDT 10:31 PM EDT
Moon 9:41 AM EDT (7/12) 10:26 PM EDT (7/12)
Length of Visible Light 16h 09m
Length of Day
15h 01m
Waxing Crescent, 17% of the Moon is Illuminated
Jul 12
Waxing Crescent
Jul 15
First Quarter
Jul 22
Full
Jul 29
Last Quarter
Aug 6
New

Hourly Weather History & Observations

Time (EDT) Temp. Dew Point Humidity Pressure Visibility Wind Dir Wind Speed Gust Speed Precip Events Conditions
12:54 AM 69.1 °F 60.1 °F 73% 29.96 in 10.0 mi North 11.5 mph - N/A   Clear
1:44 AM 68.0 °F 60.1 °F 76% 29.98 in 10.0 mi North 9.2 mph - N/A   Scattered Clouds
1:54 AM 68.0 °F 61.0 °F 78% 29.97 in 10.0 mi NNE 9.2 mph - N/A   Partly Cloudy
2:54 AM 68.0 °F 60.1 °F 76% 29.99 in 10.0 mi NNE 12.7 mph 18.4 mph N/A   Clear
3:54 AM 66.9 °F 57.9 °F 73% 30.00 in 10.0 mi NNE 9.2 mph - N/A   Clear
4:54 AM 66.9 °F 57.0 °F 70% 30.03 in 10.0 mi NE 9.2 mph 17.3 mph N/A   Mostly Cloudy
5:52 AM 66.2 °F 55.4 °F 68% 30.06 in 10.0 mi NE 8.1 mph 17.3 mph N/A   Overcast
5:54 AM 66.9 °F 55.9 °F 68% 30.05 in 10.0 mi NE 10.4 mph 17.3 mph N/A   Overcast
6:14 AM 66.0 °F 55.9 °F 70% 30.06 in 10.0 mi NNE 11.5 mph - N/A   Scattered Clouds
6:54 AM 66.9 °F 55.9 °F 68% 30.06 in 10.0 mi NNE 9.2 mph - N/A   Partly Cloudy
7:54 AM 66.9 °F 57.0 °F 70% 30.09 in 10.0 mi NE 8.1 mph - N/A   Scattered Clouds
8:54 AM 68.0 °F 57.9 °F 70% 30.10 in 10.0 mi NE 6.9 mph 18.4 mph N/A   Clear
9:54 AM 70.0 °F 57.9 °F 65% 30.11 in 10.0 mi NNE 12.7 mph 18.4 mph N/A   Clear
10:54 AM 71.1 °F 60.1 °F 68% 30.12 in 10.0 mi NE 11.5 mph 20.7 mph N/A   Partly Cloudy
11:15 AM 70.0 °F 60.1 °F 71% 30.14 in 10.0 mi ENE 9.2 mph 19.6 mph N/A   Mostly Cloudy
11:54 AM 72.0 °F 61.0 °F 68% 30.13 in 10.0 mi ENE 11.5 mph - N/A   Mostly Cloudy
12:47 PM 73.0 °F 61.0 °F 66% 30.14 in 10.0 mi ENE 13.8 mph 18.4 mph N/A   Partly Cloudy
12:54 PM 73.0 °F 60.1 °F 64% 30.13 in 10.0 mi ENE 11.5 mph - N/A   Partly Cloudy
1:22 PM 73.0 °F 60.1 °F 64% 30.14 in 10.0 mi ENE 12.7 mph 20.7 mph N/A   Mostly Cloudy
1:54 PM 73.0 °F 60.1 °F 64% 30.13 in 10.0 mi ENE 15.0 mph 23.0 mph N/A   Overcast
2:31 PM 73.9 °F 61.0 °F 64% 30.14 in 10.0 mi ENE 13.8 mph - N/A   Scattered Clouds
2:54 PM 73.0 °F 60.1 °F 64% 30.14 in 10.0 mi East 12.7 mph 19.6 mph N/A   Scattered Clouds
3:06 PM 73.0 °F 59.0 °F 61% 30.15 in 10.0 mi East 12.7 mph 20.7 mph N/A   Mostly Cloudy
3:42 PM 72.0 °F 57.9 °F 61% 30.15 in 10.0 mi NE 11.5 mph 20.7 mph N/A   Scattered Clouds
3:54 PM 73.0 °F 59.0 °F 61% 30.14 in 10.0 mi NE 10.4 mph 18.4 mph N/A   Clear
4:54 PM 72.0 °F 55.9 °F 57% 30.15 in 10.0 mi East 11.5 mph - N/A   Clear
5:54 PM 70.0 °F 55.0 °F 59% 30.15 in 10.0 mi ENE 10.4 mph - N/A   Clear
6:54 PM 70.0 °F 53.1 °F 55% 30.16 in 10.0 mi ENE 10.4 mph - N/A   Clear
7:54 PM 69.1 °F 54.0 °F 58% 30.17 in 10.0 mi ENE 8.1 mph - N/A   Clear
8:54 PM 66.9 °F 54.0 °F 63% 30.18 in 10.0 mi ENE 8.1 mph - N/A   Partly Cloudy
9:54 PM 66.0 °F 54.0 °F 65% 30.19 in 10.0 mi ENE 6.9 mph - N/A   Clear
10:54 PM 66.0 °F 53.1 °F 63% 30.20 in 10.0 mi ENE 5.8 mph - N/A   Partly Cloudy
11:54 PM 64.9 °F 54.0 °F 68% 30.21 in 10.0 mi ENE 5.8 mph - 0.00 in   Overcast